Weather History for KRRL - December, 2013

Change the Weather History Date:

Thursday, December 5, 2013

  Actual Average Record
Temperature  
Mean Temperature 15 °F -  
Max Temperature 29 °F 29 °F 60 °F (2001)
Min Temperature 1 °F 10 °F -13 °F (1976)
Degree Days  
Heating Degree Days 50    
Moisture  
Dew Point 6 °F    
Average Humidity 76    
Maximum Humidity 89    
Minimum Humidity 64    
Precipitation  
Precipitation 0.02 in - - ()
Sea Level Pressure  
Sea Level Pressure 29.85 in    
Wind  
Wind Speed 18 mph (West)    
Max Wind Speed 28 mph    
Max Gust Speed 36 mph    
Visibility 9 miles    
Events Snow    
Averages and records for this station are not official NWS values.
T = Trace of Precipitation, MM = Missing Value Source: NWS Daily Summary

Daily Weather History Graph

Daily Weather History Graph

Search for Another Location

Airport or City:

Trip Planner

Search our weather history database for the weather conditions in past years. The results will help you decide how hot, cold, wet, or windy it might be!

Date:

Astronomy

Dec. 05, 2013 Rise Set
Actual Time 7:22 AM CST 4:16 PM CST
Civil Twilight 6:48 AM CST 4:50 PM CST
Nautical Twilight 6:11 AM CST 5:27 PM CST
Astronomical Twilight 5:36 AM CST 6:03 PM CST
Moon 9:38 AM CST (12/5) 7:42 PM CST (12/5)
Length of Visible Light 10h 01m
Length of Day
8h 54m
Waxing Crescent, 11% of the Moon is Illuminated
Dec 5
Waxing Crescent
Dec 9
First Quarter
Dec 17
Full
Dec 25
Last Quarter
Jan 1
New

Hourly Weather History & Observations

Time (CST) Temp. Windchill Dew Point Humidity Pressure Visibility Wind Dir Wind Speed Gust Speed Precip Events Conditions
12:15 AM 29.7 °F 19.1 °F 26.2 °F 87% 29.47 in 10.0 mi WSW 13.8 mph 26.5 mph N/A   Overcast
12:35 AM 29.1 °F 15.1 °F 24.8 °F 84% 29.47 in 10.0 mi West 24.2 mph 31.1 mph N/A   Overcast
12:55 AM 28.4 °F 14.1 °F 24.1 °F 84% 29.48 in 10.0 mi West 24.2 mph 31.1 mph N/A   Overcast
1:15 AM 27.9 °F 13.7 °F 23.7 °F 84% 29.50 in 10.0 mi West 23.0 mph 33.4 mph N/A   Overcast
1:35 AM 26.4 °F 11.2 °F 22.1 °F 84% 29.51 in 10.0 mi West 25.3 mph 31.1 mph N/A   Overcast
1:55 AM 25.2 °F 10.1 °F 20.7 °F 83% 29.53 in 10.0 mi West 23.0 mph 35.7 mph N/A   Overcast
2:15 AM 24.6 °F 9.1 °F 20.8 °F 86% 29.54 in 10.0 mi West 24.2 mph 31.1 mph N/A   Overcast
2:35 AM 24.3 °F 10.4 °F 21.0 °F 87% 29.54 in 10.0 mi West 18.4 mph 26.5 mph N/A   Overcast
2:55 AM 23.4 °F 10.1 °F 20.7 °F 89% 29.55 in 7.0 mi West 16.1 mph 25.3 mph N/A   Overcast
3:15 AM 21.7 °F 6.3 °F 18.7 °F 88% 29.55 in 10.0 mi WSW 20.7 mph 26.5 mph N/A   Overcast
3:35 AM 20.7 °F 3.5 °F 17.6 °F 88% 29.57 in 10.0 mi WSW 25.3 mph 31.1 mph N/A   Overcast
3:55 AM 19.9 °F 3.5 °F 16.3 °F 86% 29.59 in 10.0 mi WSW 21.9 mph 32.2 mph N/A   Overcast
4:15 AM 19.4 °F 4.1 °F 15.3 °F 84% 29.60 in 7.0 mi WSW 18.4 mph 28.8 mph N/A Snow Light Snow
4:35 AM 18.3 °F 1.4 °F 13.8 °F 83% 29.60 in 7.0 mi West 21.9 mph 28.8 mph N/A Snow Light Snow
4:55 AM 17.2 °F 0.4 °F 12.2 °F 81% 29.63 in 4.0 mi WSW 20.7 mph 28.8 mph N/A Snow Light Snow
5:15 AM 15.8 °F -2.7 °F 10.4 °F 79% 29.64 in 7.0 mi West 24.2 mph 34.5 mph N/A Snow Light Snow
5:35 AM 14.9 °F -3.1 °F 9.5 °F 79% 29.66 in 5.0 mi West 21.9 mph 33.4 mph N/A Snow Light Snow
5:55 AM 14.0 °F -3.9 °F 8.6 °F 79% 29.67 in 5.0 mi West 20.7 mph 29.9 mph N/A Snow Light Snow
6:15 AM 13.1 °F -7.4 °F 7.3 °F 78% 29.68 in 10.0 mi West 27.6 mph 33.4 mph N/A   Overcast
6:35 AM 12.9 °F -5.3 °F 6.8 °F 77% 29.71 in 10.0 mi West 20.7 mph 27.6 mph N/A Snow Light Snow
6:55 AM 12.7 °F -4.1 °F 7.3 °F 79% 29.71 in 7.0 mi West 17.3 mph 23.0 mph N/A Snow Light Snow
7:15 AM 12.0 °F -4.5 °F 6.4 °F 78% 29.73 in 5.0 mi West 16.1 mph 29.9 mph N/A Snow Light Snow
7:35 AM 11.5 °F -6.3 °F 6.1 °F 79% 29.74 in 3.0 mi West 18.4 mph 21.9 mph N/A Snow Light Snow
7:55 AM 10.9 °F -5.9 °F 5.5 °F 79% 29.75 in 4.0 mi West 16.1 mph - N/A   Haze
8:15 AM 10.6 °F -6.9 °F 4.8 °F 78% 29.76 in 4.0 mi West 17.3 mph 25.3 mph N/A   Haze
8:35 AM 10.2 °F -6.3 °F 4.1 °F 76% 29.77 in 4.0 mi West 15.0 mph 27.6 mph N/A   Haze
8:55 AM 10.2 °F -8.4 °F 3.4 °F 74% 29.78 in 7.0 mi West 19.6 mph 27.6 mph N/A   Overcast
9:15 AM 10.0 °F -10.0 °F 3.0 °F 73% 29.80 in 5.0 mi West 23.0 mph 27.6 mph N/A   Haze
9:35 AM 10.0 °F -8.6 °F 2.3 °F 71% 29.81 in 7.0 mi West 19.6 mph 29.9 mph N/A   Mostly Cloudy
9:55 AM 9.9 °F -7.9 °F 2.1 °F 71% 29.82 in 10.0 mi West 17.3 mph 26.5 mph N/A   Scattered Clouds
10:15 AM 10.4 °F -8.2 °F 2.1 °F 69% 29.84 in 10.0 mi West 19.6 mph 32.2 mph N/A   Mostly Cloudy
10:35 AM 10.4 °F -9.1 °F 2.8 °F 72% 29.85 in 5.0 mi West 21.9 mph 31.1 mph N/A   Haze
10:55 AM 10.9 °F -8.3 °F 2.3 °F 68% 29.84 in 7.0 mi West 21.9 mph 29.9 mph N/A   Overcast
11:15 AM 10.9 °F -6.5 °F 2.1 °F 68% 29.85 in 10.0 mi West 17.3 mph 26.5 mph N/A   Overcast
11:35 AM 11.3 °F -6.5 °F 2.5 °F 68% 29.86 in 10.0 mi West 18.4 mph 25.3 mph N/A   Mostly Cloudy
11:55 AM 13.1 °F -3.1 °F 3.7 °F 66% 29.86 in 10.0 mi West 16.1 mph - N/A   Overcast
12:15 PM 12.0 °F -5.6 °F 2.8 °F 67% 29.87 in 10.0 mi West 18.4 mph 21.9 mph N/A   Mostly Cloudy
12:35 PM 11.8 °F -5.3 °F 2.7 °F 67% 29.87 in 10.0 mi West 17.3 mph 25.3 mph N/A   Scattered Clouds
12:55 PM 12.7 °F -4.1 °F 3.0 °F 65% 29.87 in 10.0 mi West 17.3 mph 23.0 mph N/A   Scattered Clouds
1:15 PM 12.4 °F -5.6 °F 2.5 °F 65% 29.88 in 10.0 mi West 19.6 mph 24.2 mph N/A   Scattered Clouds
1:35 PM 12.6 °F -4.4 °F 2.8 °F 65% 29.89 in 10.0 mi WNW 17.3 mph 26.5 mph N/A   Clear
1:55 PM 13.1 °F -2.6 °F 3.2 °F 65% 29.89 in 10.0 mi West 15.0 mph 23.0 mph N/A   Scattered Clouds
2:15 PM 13.1 °F -3.7 °F 3.0 °F 64% 29.90 in 10.0 mi West 17.3 mph 25.3 mph N/A   Scattered Clouds
2:35 PM 12.6 °F -3.8 °F 2.5 °F 64% 29.91 in 10.0 mi WSW 16.1 mph 23.0 mph N/A   Scattered Clouds
2:55 PM 12.2 °F -4.8 °F 2.3 °F 65% 29.93 in 10.0 mi West 17.3 mph 26.5 mph N/A   Mostly Cloudy
3:35 PM 10.4 °F -6.0 °F 2.1 °F 69% 29.94 in 10.0 mi West 15.0 mph 20.7 mph N/A   Mostly Cloudy
3:55 PM 9.7 °F -3.3 °F 2.1 °F 71% 29.95 in 10.0 mi WSW 9.2 mph - N/A   Mostly Cloudy
4:15 PM 9.0 °F -4.2 °F 1.4 °F 71% 29.96 in 10.0 mi West 9.2 mph - N/A   Overcast
4:35 PM 8.6 °F -7.7 °F 1.4 °F 73% 29.96 in 10.0 mi West 13.8 mph - N/A   Overcast
4:55 PM 8.4 °F -7.3 °F 1.4 °F 73% 29.97 in 10.0 mi West 12.7 mph - N/A   Overcast
5:15 PM 8.2 °F -9.4 °F 1.4 °F 74% 29.98 in 10.0 mi West 16.1 mph - N/A   Overcast
5:35 PM 8.4 °F -7.9 °F 1.6 °F 74% 29.99 in 10.0 mi West 13.8 mph - N/A   Overcast
5:55 PM 8.1 °F -9.0 °F 1.4 °F 74% 30.00 in 10.0 mi West 15.0 mph 20.7 mph N/A   Overcast
6:15 PM 7.7 °F -9.5 °F 0.9 °F 74% 30.02 in 10.0 mi West 15.0 mph - N/A   Overcast
6:35 PM 7.5 °F -9.7 °F 0.5 °F 73% 30.04 in 10.0 mi West 15.0 mph - N/A   Overcast
6:55 PM 7.3 °F -10.6 °F 0.5 °F 74% 30.06 in 10.0 mi West 16.1 mph 20.7 mph N/A   Overcast
7:15 PM 6.8 °F -9.3 °F -0.4 °F 72% 30.08 in 10.0 mi West 12.7 mph 20.7 mph N/A   Overcast
7:35 PM 6.8 °F -10.0 °F 0.1 °F 74% 30.10 in 10.0 mi West 13.8 mph 19.6 mph N/A   Overcast
7:55 PM 6.4 °F -11.7 °F -0.4 °F 74% 30.10 in 10.0 mi West 16.1 mph - N/A   Overcast
8:15 PM 5.9 °F -11.8 °F -0.6 °F 75% 30.11 in 10.0 mi West 15.0 mph - N/A   Overcast
8:35 PM 5.2 °F -13.3 °F -1.3 °F 75% 30.12 in 10.0 mi West 16.1 mph - N/A   Overcast
8:55 PM 4.5 °F -12.3 °F -1.8 °F 75% 30.12 in 10.0 mi West 12.7 mph - N/A   Mostly Cloudy
9:15 PM 3.9 °F -10.4 °F -2.2 °F 76% 30.13 in 10.0 mi West 9.2 mph - N/A   Scattered Clouds
9:35 PM 3.2 °F -12.2 °F -2.4 °F 78% 30.12 in 10.0 mi WNW 10.4 mph - N/A   Scattered Clouds
9:55 PM 3.0 °F -13.3 °F -2.7 °F 77% 30.13 in 10.0 mi West 11.5 mph - N/A   Clear
10:15 PM 2.8 °F -13.5 °F -2.7 °F 78% 30.13 in 10.0 mi West 11.5 mph 16.1 mph N/A   Clear
10:35 PM 2.3 °F -12.4 °F -3.1 °F 78% 30.14 in 10.0 mi West 9.2 mph 16.1 mph N/A   Clear
10:55 PM 2.1 °F -10.4 °F -3.3 °F 78% 30.14 in 10.0 mi West 6.9 mph - N/A   Clear
11:15 PM 1.8 °F -10.8 °F -3.6 °F 78% 30.14 in 10.0 mi West 6.9 mph - N/A   Scattered Clouds
11:35 PM 1.4 °F -11.3 °F -4.0 °F 78% 30.15 in 10.0 mi WNW 6.9 mph - N/A   Clear
11:55 PM 1.0 °F -12.9 °F -4.0 °F 79% 30.17 in 10.0 mi West 8.1 mph - N/A   Clear